TimePST,TemperatureF,Dew PointF,Humidity,Sea Level PressureIn,VisibilityMPH,Wind Direction,Wind SpeedMPH,Gust SpeedMPH,PrecipitationIn,Events,Conditions,WindDirDegrees,DateUTC
12:25 AM,44.6,42.8,93,30.13,2.5,Calm,Calm,-,N/A,,Clear,0,2012-11-14 08:25:00
12:34 AM,44.6,42.8,93,30.13,5.0,NNW,3.5,-,N/A,,Clear,330,2012-11-14 08:34:00
12:53 AM,44.1,43.0,96,30.11,6.0,NW,3.5,-,N/A,,Clear,320,2012-11-14 08:53:00
12:58 AM,44.6,42.8,93,30.12,1.8,Calm,Calm,-,N/A,,Clear,0,2012-11-14 08:58:00
1:07 AM,44.6,42.8,93,30.12,0.5,Calm,Calm,-,N/A,Fog,Fog,0,2012-11-14 09:07:00
1:28 AM,44.6,42.8,93,30.12,2.0,North,3.5,-,N/A,,Clear,360,2012-11-14 09:28:00
1:36 AM,44.6,42.8,93,30.13,4.0,North,3.5,-,N/A,,Clear,360,2012-11-14 09:36:00
1:53 AM,44.1,43.0,96,30.11,4.0,Calm,Calm,-,N/A,,Clear,0,2012-11-14 09:53:00
2:20 AM,44.6,42.8,93,30.13,1.8,Calm,Calm,-,N/A,,Clear,0,2012-11-14 10:20:00
2:32 AM,44.6,42.8,93,30.13,3.0,Calm,Calm,-,N/A,,Clear,0,2012-11-14 10:32:00
2:40 AM,44.6,42.8,93,30.13,1.5,Calm,Calm,-,N/A,,Clear,0,2012-11-14 10:40:00
2:53 AM,44.1,42.1,93,30.11,2.0,Calm,Calm,-,N/A,,Clear,0,2012-11-14 10:53:00
3:01 AM,42.8,41.0,93,30.12,8.0,Calm,Calm,-,N/A,,Clear,0,2012-11-14 11:01:00
3:10 AM,42.8,42.8,100,30.11,1.8,Calm,Calm,-,N/A,,Clear,0,2012-11-14 11:10:00
3:22 AM,42.8,42.8,100,30.11,3.0,Calm,Calm,-,N/A,,Clear,0,2012-11-14 11:22:00
3:50 AM,42.8,41.0,93,30.10,1.5,Calm,Calm,-,N/A,,Clear,0,2012-11-14 11:50:00
3:53 AM,43.0,41.0,93,30.08,0.8,Calm,Calm,-,N/A,,Clear,0,2012-11-14 11:53:00
4:10 AM,42.8,41.0,93,30.10,1.2,Calm,Calm,-,N/A,,Clear,0,2012-11-14 12:10:00
4:19 AM,42.8,41.0,93,30.10,3.0,Calm,Calm,-,N/A,,Clear,0,2012-11-14 12:19:00
4:22 AM,42.8,41.0,93,30.10,1.8,Calm,Calm,-,N/A,,Clear,0,2012-11-14 12:22:00
4:33 AM,41.0,39.2,93,30.10,4.0,Calm,Calm,-,N/A,,Clear,0,2012-11-14 12:33:00
4:40 AM,42.8,39.2,87,30.10,9.0,Calm,Calm,-,N/A,,Scattered Clouds,0,2012-11-14 12:40:00
4:48 AM,41.0,39.2,93,30.10,1.8,Calm,Calm,-,N/A,,Scattered Clouds,0,2012-11-14 12:48:00
4:53 AM,41.0,39.0,93,30.08,1.0,Calm,Calm,-,N/A,,Mist,0,2012-11-14 12:53:00
5:10 AM,42.8,41.0,93,30.10,0.8,Calm,Calm,-,N/A,,Mist,0,2012-11-14 13:10:00
5:14 AM,42.8,41.0,93,30.10,1.2,Calm,Calm,-,N/A,,Scattered Clouds,0,2012-11-14 13:14:00
5:18 AM,41.0,41.0,100,30.10,4.0,Calm,Calm,-,N/A,,Scattered Clouds,0,2012-11-14 13:18:00
5:53 AM,41.0,39.9,96,30.08,2.5,SSE,3.5,-,N/A,,Mostly Cloudy,150,2012-11-14 13:53:00
6:00 AM,41.0,39.2,93,30.10,5.0,SE,3.5,-,N/A,,Mostly Cloudy,140,2012-11-14 14:00:00
6:23 AM,39.2,39.2,100,30.10,7.0,Calm,Calm,-,N/A,,Scattered Clouds,0,2012-11-14 14:23:00
6:35 AM,41.0,39.2,93,30.11,6.0,Calm,Calm,-,N/A,,Mostly Cloudy,0,2012-11-14 14:35:00
6:53 AM,41.0,39.0,93,30.09,4.0,Calm,Calm,-,N/A,Fog,Patches of Fog,0,2012-11-14 14:53:00
6:57 AM,41.0,39.2,93,30.11,0.8,Calm,Calm,-,N/A,Fog,Patches of Fog,0,2012-11-14 14:57:00
7:03 AM,41.0,39.2,93,30.11,4.0,Calm,Calm,-,N/A,Fog,Patches of Fog,0,2012-11-14 15:03:00
7:34 AM,39.2,37.4,93,30.12,0.5,Calm,Calm,-,N/A,Fog,Fog,0,2012-11-14 15:34:00
7:53 AM,41.0,39.9,96,30.10,10.0,Calm,Calm,-,N/A,Fog,Patches of Fog,0,2012-11-14 15:53:00
8:53 AM,48.0,46.0,93,30.10,10.0,Calm,Calm,-,N/A,,Scattered Clouds,0,2012-11-14 16:53:00
9:53 AM,55.9,46.9,72,30.11,10.0,Calm,Calm,-,N/A,,Clear,0,2012-11-14 17:53:00
10:53 AM,62.1,48.9,62,30.08,10.0,Variable,3.5,-,N/A,,Partly Cloudy,0,2012-11-14 18:53:00
11:53 AM,66.9,51.1,57,30.05,10.0,NW,3.5,-,N/A,,Partly Cloudy,320,2012-11-14 19:53:00
12:53 PM,71.1,51.1,49,30.03,10.0,SSE,4.6,-,N/A,,Partly Cloudy,150,2012-11-14 20:53:00
1:53 PM,71.1,51.1,49,30.01,10.0,South,8.1,-,N/A,,Clear,170,2012-11-14 21:53:00
2:53 PM,70.0,48.9,47,30.01,10.0,South,8.1,-,N/A,,Partly Cloudy,190,2012-11-14 22:53:00
3:53 PM,68.0,48.9,50,30.00,10.0,SSE,5.8,-,N/A,,Scattered Clouds,160,2012-11-14 23:53:00
4:53 PM,63.0,48.9,60,30.00,10.0,SSE,4.6,-,N/A,,Partly Cloudy,150,2012-11-15 00:53:00
5:53 PM,60.1,48.9,67,30.01,10.0,Calm,Calm,-,N/A,,Clear,0,2012-11-15 01:53:00
6:53 PM,55.0,48.0,77,30.01,10.0,Calm,Calm,-,N/A,,Clear,0,2012-11-15 02:53:00
7:53 PM,52.0,48.0,86,30.01,9.0,Calm,Calm,-,N/A,,Clear,0,2012-11-15 03:53:00
8:53 PM,50.0,46.9,89,30.01,8.0,Calm,Calm,-,N/A,,Clear,0,2012-11-15 04:53:00
9:53 PM,46.9,45.0,93,30.01,8.0,North,3.5,-,N/A,,Clear,10,2012-11-15 05:53:00
10:32 PM,48.2,46.4,93,30.02,1.8,NNW,3.5,-,N/A,,Clear,330,2012-11-15 06:32:00
10:38 PM,48.2,46.4,93,30.02,3.0,NNW,3.5,-,N/A,,Clear,330,2012-11-15 06:38:00
10:53 PM,46.9,46.0,97,30.00,6.0,Calm,Calm,-,N/A,,Clear,0,2012-11-15 06:53:00
11:29 PM,44.6,44.6,100,30.02,1.5,Calm,Calm,-,N/A,,Partly Cloudy,0,2012-11-15 07:29:00
11:32 PM,44.6,42.8,93,30.02,0.8,Calm,Calm,-,N/A,,Mist,0,2012-11-15 07:32:00
11:53 PM,45.0,43.0,93,30.00,0.5,Calm,Calm,-,N/A,Fog,Fog,0,2012-11-15 07:53:00